Location: Escondido Hill
(38.9119°N, 104.7815°W)
Time: 18:30:58
(UTC-06:00)

Hubble Space Telescope - Visible Passes

Search period start: 19 April 2019 00:00
Search period end: 29 April 2019 00:00
Orbit: 537 x 540 km, 28.5° (Epoch: 19 April)

Date Brightness Start Highest point End Pass type
(mag) Time Alt. Az. Time Alt. Az. Time Alt. Az.
24 Apr 3.1 05:05:52 10° S 05:07:20 12° SSE 05:08:48 10° SE visible
25 Apr 2.9 04:55:08 11° S 04:56:43 13° SSE 04:58:44 10° SE visible
26 Apr 2.8 04:45:06 14° S 04:46:05 15° SSE 04:48:28 10° SE visible
27 Apr 2.6 04:35:03 16° S 04:35:28 16° S 04:38:05 10° SE visible
28 Apr 2.6 04:25:01 18° S 04:25:01 18° S 04:27:38 10° SE visible
